Location: Newark
(15.5700°N, 75.3700°E)
Time: 08:43:26
(UTC+00:00)

ISS - Pass Details

Date: 17 November 2019
Orbit: 411 x 421 km, 51.6° (Epoch: 07 December)

Event Time Altitude Azimuth Distance (km) Brightness Sun altitude
Rises 13:27:00 0° 220° (SW) 2,335 1.0 -15.0°
Reaches altitude 10° 13:29:05 10° 222° (SW) 1,477 -0.1 -15.5°
Maximum altitude 13:32:24 75° 308° (NW) 430 -3.7 -16.3°
Enters shadow 13:33:47 32° 28° (NNE) 733 -2.9 -16.6°
